[[{"header":{"parameterUnit":"m.s-1","parameterCategory":1,"la1":30.2991,"la2":30.254,"lo1":-89.0895,"lo2":-89.0444,"dy":0.0017,"dx":0.0017,"nx":28,"ny":28,"refTime":"2023-07-26T21:00:00:Z","depth":0,"parameterNumber":2,"parameterNumberName":"U-component_of_WINDS"},"data":[0,0,0,0,0,0,0,0,0,0,0,0,0,0,0,0,0,0,0,0,0,0,0,0,0,0,0,0,0,0,0,0,0,0,0,0,0,0,0,0,0,0,0,0,0,0,0,0,0,0,0,0,0,0,0,0,0,0,0.7698,0.7697,0,0.7629,0.7628,0.7627,0.7546,0.7545,0.7544,0.7543,0.7474,0.7473,0.7473,0,0,0,0,0,0,0,0,0,0,0,0,0,0.7762,0.7761,0.7698,0.7697,0.7696,0.7629,0.7628,0.7627,0.7546,0.7545,0.7543,0.7542,0.7474,0.7473,0.7473,0,0,0,0,0,0,0,0,0,0,0,0,0,0.7718,0.7761,0.7698,0.7648,0.7643,0.7629,0.7628,0.7627,0.7547,0.7545,0.7543,0.7541,0.7475,0.7474,0.7473,0.7503,0,0,0.7469,0.7469,0,0,0,0,0,0,0,0,0.772,0.7715,0.7656,0.7651,0.7646,0.7594,0.7625,0.7585,0.7547,0.7583,0.7543,0.754,0.7516,0.7511,0.7502,0.75,0.7497,0.7469,0.7469,0.7468,0.7468,0,0,0,0,0,0,0,0.7723,0.7718,0.7671,0.7656,0.7649,0.7629,0.7621,0.7617,0.7561,0.758,0.7574,0.7567,0.7512,0.7503,0.75,0.7496,0.7469,0.7469,0.7468,0.7467,0.7512,0.7514,0,0,0,0,0,0,0.7734,0.7721,0.7673,0.7669,0.7679,0.763,0.762,0.7613,0.7561,0.7551,0.7568,0.7563,0.7506,0.7501,0.7497,0.7527,0.7468,0.7467,0.7467,0.751,0.7513,0.7515,0,0,0,0,0,0,0.7735,0.773,0.7676,0.7693,0.7685,0.763,0.7623,0.7612,0.7603,0.7552,0.7541,0.7569,0.7504,0.7499,0.7501,0.7524,0.7467,0.7466,0.7508,0.7511,0.7514,0.7589,0,0,0,0,0,0,0.7738,0.7731,0.7742,0.7694,0.7684,0.7681,0.7624,0.7612,0.7601,0.7594,0.755,0.7541,0.7503,0.7503,0.75,0.7521,0.7465,0.7506,0.751,0.7513,0.7584,0.7594,0.7602,0,0,0,0,0,0.774,0.7768,0.7743,0.7738,0.7697,0.7682,0.7677,0.7631,0.7603,0.7614,0.758,0.7542,0.7522,0.7504,0.75,0.7521,0.7504,0.7509,0.7512,0.758,0.7592,0.7602,0,0,0,0,0,0,0.7822,0.776,0.7733,0.7745,0.772,0.7669,0.7681,0.7646,0.7628,0.7622,0.7567,0.7558,0.7566,0.7544,0.7526,0.7547,0.7508,0.7511,0.7561,0.7571,0.758,0.7585,0.7464,0,0,0,0,0,0.7841,0.7834,0.7781,0.7797,0.7786,0.7736,0.7728,0.7695,0.7666,0.7655,0.7622,0.7596,0.7583,0.7577,0.7562,0.7581,0.7569,0.7593,0.7603,0.761,0.7613,0.7619,0.7628,0.7528,0.7528,0.7528,0,0,0.7881,0.7847,0.7846,0.7813,0.7789,0.7783,0.7727,0.7724,0.7718,0.7655,0.7654,0.7629,0.7597,0.7607,0.7609,0.7589,0.7638,0.7615,0.7622,0.7621,0.7624,0.7633,0.7642,0.7531,0.753,0.753,0,0,0.795,0.7925,0.7933,0.791,0.7874,0.784,0.7843,0.7797,0.7777,0.7775,0.7726,0.772,0.77,0.7678,0.7664,0.7723,0.7686,0.772,0.7766,0.7772,0.778,0.7787,0.7805,0.7813,0.7724,0.7724,0.7724,0,0.8005,0.7993,0.7943,0.7941,0.7927,0.7868,0.7877,0.7857,0.7819,0.781,0.7787,0.7759,0.7733,0.7736,0.775,0.7742,0.7741,0.7724,0.7783,0.7789,0.7795,0.7812,0.7819,0.7728,0.7727,0.7727,0.7727,0,0.806,0.8053,0.8065,0.8027,0.8015,0.8019,0.7969,0.7962,0.793,0.7899,0.7897,0.7863,0.784,0.7839,0.7808,0.7836,0.7824,0.7793,0.7752,0.7809,0.7824,0.7831,0.7734,0.7732,0.7731,0.773,0,0,0.8179,0.8112,0.8117,0.8098,0.8053,0.8046,0.8047,0.8023,0.8017,0.7993,0.7991,0.7974,0.7944,0.7929,0.7895,0.7901,0.7946,0.7868,0.7867,0.7882,0.7972,0.7994,0.8003,0.7922,0.7923,0.7924,0.7974,0,0.8238,0.8234,0.8189,0.8198,0.8189,0.8132,0.8132,0.8104,0.8075,0.8063,0.8031,0.8019,0.7982,0.7971,0.7974,0.794,0.7963,0.7936,0.7919,0.7919,0.7926,0.8011,0.8035,0.8084,0.798,0.7981,0.7982,0,0.8307,0.8284,0.8292,0.8244,0.8239,0.824,0.8213,0.8203,0.817,0.8147,0.8129,0.809,0.8087,0.8049,0.8043,0.8025,0.8015,0.7997,0.7998,0.7993,0.7952,0.8006,0.8098,0.8105,0.7991,0.799,0.7989,0,0.839,0.8361,0.8361,0.8347,0.8293,0.8294,0.8271,0.8236,0.8224,0.8201,0.8192,0.8169,0.8156,0.8139,0.8095,0.8072,0.8093,0.8052,0.8073,0.8074,0.8079,0.8079,0.8168,0.8076,0.8076,0.8076,0.8076,0,0.846,0.8466,0.8397,0.8397,0.8402,0.835,0.8356,0.8328,0.8297,0.829,0.8241,0.8235,0.8178,0.8166,0.8131,0.813,0.8125,0.8106,0.8096,0.8109,0.8111,0.8101,0.8096,0.8078,0.8077,0.8077,0.8077,0,0.8552,0.8507,0.8503,0.845,0.8437,0.8443,0.8398,0.8396,0.8362,0.8354,0.8349,0.8297,0.828,0.8234,0.8207,0.8183,0.819,0.8174,0.8201,0.8194,0.8217,0.8215,0.8301,0.8309,0.8215,0.8216,0.8216,0,0.8599,0.8602,0.8549,0.854,0.8519,0.8507,0.8493,0.8441,0.8429,0.839,0.8392,0.8371,0.8351,0.8326,0.8286,0.8263,0.8245,0.8277,0.8241,0.8253,0.8242,0.8242,0.8241,0.8284,0.8285,0.8286,0.8287,0,0.8686,0.8662,0.8644,0.8618,0.8603,0.858,0.8554,0.855,0.8492,0.8481,0.8462,0.8446,0.8416,0.8395,0.8366,0.8342,0.8304,0.8299,0.8302,0.8314,0.8329,0.8319,0.822,0.8297,0.8296,0.8295,0.8295,0.8294,0.8755,0.8754,0.8716,0.8697,0.8672,0.8649,0.8643,0.8608,0.8591,0.8561,0.8532,0.8516,0.8481,0.8437,0.8416,0.8402,0.8383,0.8388,0.8389,0.8391,0.8396,0.8332,0.8397,0.8397,0.8397,0.8396,0.8396,0,0.8837,0.8809,0.8792,0.8757,0.8742,0.8707,0.8676,0.8666,0.8652,0.8622,0.8602,0.8579,0.8558,0.8516,0.849,0.8487,0.8469,0.8482,0.8481,0.8476,0.8416,0.8414,0.8497,0.8497,0.8497,0.8497,0.8497,0.8497,0.8878,0.8873,0.8845,0.8828,0.88,0.8783,0.8768,0.8745,0.8721,0.8697,0.8679,0.8651,0.8615,0.8586,0.8565,0.8553,0.8545,0.8563,0.8546,0.849,0.848,0.8471,0.8469,0.8562,0.8562,0.8606,0.8607,0.8607]},{"header":{"parameterUnit":"m.s-1","parameterCategory":1,"la1":30.2991,"la2":30.254,"lo1":-89.0895,"lo2":-89.0444,"dy":0.0017,"dx":0.0017,"nx":28,"ny":28,"refTime":"2023-07-26T21:00:00:Z","depth":0,"parameterNumber":3,"parameterNumberName":"V-component_of_WINDS"},"data":[0,0,0,0,0,0,0,0,0,0,0,0,0,0,0,0,0,0,0,0,0,0,0,0,0,0,0,0,0,0,0,0,0,0,0,0,0,0,0,0,0,0,0,0,0,0,0,0,0,0,0,0,0,0,0,0,0,0,0.5461,0.5462,0,0.5623,0.5625,0.5627,0.569,0.5689,0.5689,0.5689,0.5854,0.5859,0.5864,0,0,0,0,0,0,0,0,0,0,0,0,0,0.5203,0.5207,0.546,0.5462,0.5465,0.5623,0.5625,0.5627,0.569,0.5689,0.5689,0.5688,0.5853,0.5858,0.5864,0,0,0,0,0,0,0,0,0,0,0,0,0,0.5335,0.5209,0.546,0.5515,0.5521,0.5623,0.5625,0.5628,0.569,0.5689,0.5689,0.5688,0.5851,0.5858,0.5865,0.5923,0,0,0.5887,0.589,0,0,0,0,0,0,0,0,0.5327,0.5344,0.5505,0.5511,0.5519,0.5636,0.5595,0.5727,0.569,0.5626,0.5689,0.5688,0.5782,0.5795,0.5827,0.5931,0.5938,0.5888,0.5892,0.5895,0.5897,0,0,0,0,0,0,0,0.5318,0.5338,0.5525,0.5507,0.5516,0.5531,0.5549,0.5621,0.5706,0.5632,0.5636,0.5655,0.5786,0.582,0.5831,0.5941,0.5888,0.5894,0.5899,0.5901,0.6101,0.6102,0,0,0,0,0,0,0.53,0.533,0.552,0.553,0.5419,0.5536,0.5556,0.5599,0.5705,0.5721,0.5655,0.5657,0.5808,0.5823,0.5837,0.5913,0.5895,0.5902,0.5906,0.61,0.6101,0.6102,0,0,0,0,0,0,0.5294,0.5316,0.5513,0.5431,0.5457,0.5541,0.5588,0.5602,0.5637,0.5723,0.5739,0.5675,0.5808,0.5827,0.5902,0.592,0.5905,0.5912,0.6099,0.6101,0.6102,0.6064,0,0,0,0,0,0,0.5287,0.5314,0.5337,0.5431,0.5461,0.5575,0.559,0.5606,0.5649,0.5653,0.5745,0.576,0.5809,0.589,0.5909,0.5929,0.5918,0.6098,0.61,0.6101,0.6064,0.6064,0.6064,0,0,0,0,0,0.5277,0.532,0.5338,0.5361,0.5493,0.5576,0.5593,0.5649,0.565,0.5674,0.573,0.5757,0.5914,0.5898,0.5919,0.5942,0.6097,0.6099,0.6101,0.6065,0.6064,0.6064,0,0,0,0,0,0,0.5226,0.5333,0.5355,0.5429,0.5493,0.5586,0.5619,0.5647,0.5711,0.5712,0.5778,0.5798,0.5867,0.5912,0.5891,0.6004,0.6008,0.6014,0.5972,0.5973,0.5973,0.5961,0.5924,0,0,0,0,0,0.5223,0.5282,0.5373,0.543,0.5461,0.5534,0.5572,0.561,0.5678,0.5705,0.5767,0.5832,0.5896,0.5937,0.6001,0.6071,0.6092,0.6097,0.6097,0.6097,0.6102,0.6142,0.6145,0.6109,0.6109,0.6109,0,0,0.5219,0.5285,0.5318,0.5422,0.5475,0.5535,0.5556,0.5618,0.5663,0.5715,0.5789,0.5836,0.5913,0.5985,0.6021,0.6025,0.6116,0.6099,0.6098,0.6104,0.6145,0.6148,0.6151,0.6111,0.6111,0.611,0,0,0.5241,0.5296,0.535,0.5404,0.5485,0.5533,0.5545,0.5635,0.5668,0.5744,0.5784,0.5837,0.5947,0.6,0.6041,0.6082,0.611,0.6101,0.6101,0.614,0.6143,0.6146,0.6161,0.6165,0.6106,0.6106,0.6106,0,0.5225,0.5316,0.5374,0.5434,0.5478,0.5528,0.5583,0.5632,0.5729,0.5758,0.5762,0.59,0.5955,0.6041,0.6051,0.6082,0.6099,0.6091,0.6138,0.6141,0.6145,0.616,0.6165,0.6104,0.6104,0.6105,0.6105,0,0.5292,0.5355,0.5389,0.5482,0.553,0.5587,0.5653,0.5695,0.5727,0.5775,0.5851,0.5919,0.5997,0.602,0.6053,0.6111,0.6111,0.6125,0.613,0.6146,0.6161,0.6167,0.6102,0.6103,0.6103,0.6103,0,0,0.5287,0.5412,0.5423,0.5466,0.5559,0.5608,0.5667,0.5744,0.5778,0.5844,0.5895,0.5986,0.5999,0.6046,0.6085,0.6119,0.6147,0.6129,0.6132,0.613,0.6215,0.6204,0.621,0.6165,0.6167,0.6168,0.6209,0,0.5322,0.543,0.5484,0.5568,0.5627,0.5674,0.5726,0.5788,0.5834,0.589,0.594,0.6004,0.6017,0.6046,0.6081,0.6136,0.6165,0.6134,0.6214,0.6216,0.6193,0.6218,0.6207,0.6242,0.6215,0.6216,0.6217,0,0.5377,0.5442,0.5532,0.5618,0.5645,0.569,0.5765,0.5818,0.5889,0.592,0.5972,0.601,0.6073,0.6073,0.6161,0.6139,0.6174,0.6206,0.6209,0.6219,0.6217,0.6229,0.6255,0.626,0.6227,0.6226,0.6225,0,0.5365,0.5475,0.5543,0.5578,0.568,0.5711,0.5754,0.5825,0.5868,0.5933,0.5961,0.6032,0.6072,0.6126,0.6182,0.6176,0.6264,0.6269,0.6292,0.629,0.6309,0.6307,0.6341,0.6331,0.6331,0.633,0.633,0,0.5398,0.5451,0.5539,0.5581,0.5642,0.5703,0.5762,0.5809,0.5872,0.5924,0.5969,0.6016,0.6087,0.6143,0.6187,0.6254,0.6271,0.6297,0.6309,0.6294,0.629,0.6319,0.6318,0.6332,0.6332,0.6331,0.6331,0,0.5395,0.5455,0.5533,0.5623,0.5647,0.5688,0.5765,0.5807,0.5855,0.592,0.5939,0.6014,0.6082,0.6143,0.6234,0.6264,0.6332,0.6345,0.6308,0.6314,0.6333,0.6331,0.6387,0.6398,0.6379,0.6379,0.6379,0,0.5412,0.5454,0.5549,0.5587,0.563,0.569,0.5734,0.5795,0.5839,0.5923,0.5956,0.6027,0.6088,0.6196,0.6258,0.6328,0.6344,0.6359,0.6355,0.6338,0.6344,0.6341,0.6346,0.6358,0.6358,0.6358,0.6358,0,0.5437,0.5465,0.5526,0.5598,0.5649,0.5709,0.577,0.5798,0.5871,0.5918,0.5989,0.6036,0.6129,0.62,0.6276,0.6321,0.6352,0.6359,0.6368,0.6354,0.633,0.6343,0.6307,0.6357,0.6358,0.6358,0.6358,0.6358,0.5445,0.5485,0.5557,0.5624,0.5676,0.5732,0.5777,0.583,0.589,0.5971,0.6003,0.6075,0.6145,0.6251,0.6295,0.6353,0.6358,0.6371,0.6375,0.6377,0.6374,0.632,0.6367,0.6367,0.6367,0.6367,0.6367,0,0.5472,0.5521,0.5582,0.5666,0.5718,0.5743,0.5811,0.5854,0.5917,0.5979,0.6038,0.612,0.6188,0.6256,0.6328,0.6361,0.6377,0.6378,0.6376,0.6386,0.6365,0.635,0.6364,0.6364,0.6364,0.6364,0.6364,0.6364,0.5492,0.5561,0.5597,0.5692,0.5741,0.5812,0.5849,0.5901,0.5951,0.604,0.6097,0.6141,0.6206,0.6283,0.6347,0.6365,0.639,0.6387,0.6409,0.6388,0.6388,0.6387,0.6374,0.6392,0.6392,0.6426,0.6426,0.6426]}]]